Dewpoint
66 66 65 65 64 64 64 64 64 64 64 64 64 64 64 64 65 65 65 65 65 65 66 66 66 66 65 65 65 65 65 65 65 65 65 64 64 64 63 63 63 63
66 66 65 65 65 64 64 64 64 64 64 64 64 64 64 64 64 65 65 65 65 65 65 66 66 66 66 65 65 65 65 65 65 65 65 64 64 64 64 64 63 64
66 66 66 65 65 65 64 64 64 64 64 64 64 64 64 64 64 65 65 65 65 65 65 65 65 66 66 66 65 65 65 64 64 65 65 64 64 64 64 64 64 63
66 66 66 66 65 65 65 65 64 64 64 64 64 64 64 65 64 64 65 66 65 65 65 65 65 66 66 65 65 65 65 64 65 65 64 64 64 64 64 64 64 63
66 66 66 66 66 66 65 65 65 64 64 64 64 64 64 64 64 64 64 65 65 65 65 65 65 65 65 65 65 65 65 65 64 64 64 64 64 64 64 64 63 62
66 66 66 66 66 66 66 65 65 65 64 64 64 64 64 64 64 64 64 64 65 65 65 65 65 65 65 65 65 65 65 65 64 64 64 64 64 64 64 63 63 63
66 66 66 66 66 66 65 65 65 65 65 65 64 64 64 64 64 64 64 64 64 65 65 65 65 65 65 65 65 65 65 65 64 64 64 64 64 63 63 63 63 63
66 66 66 66 66 66 65 65 65 65 65 65 64 64 64 64 64 64 64 64 64 65 65 65 65 65 65 65 65 65 64 64 64 64 64 64 63 63 63 63 63 63
66 66 66 66 66 66 65 65 65 65 65 65 65 64 65 64 64 64 64 64 64 65 65 65 65 65 65 65 65 64 64 64 64 63 63 63 63 63 63 63 63 63
66 66 66 66 66 66 66 65 65 65 65 65 65 65 65 65 65 65 65 64 64 65 65 65 65 65 65 65 65 64 64 64 63 63 63 63 63 63 63 63 63 62
66 66 66 66 66 66 66 66 66 66 65 65 65 65 65 65 65 65 65 65 65 65 65 65 65 65 65 64 64 64 64 64 63 63 63 63 63 63 64 63 63 63
66 66 66 66 66 66 66 66 66 66 65 65 65 65 65 65 65 65 65 65 65 65 65 65 65 65 64 64 64 64 64 64 64 63 63 63 63 62 63 62 62 62
66 66 66 66 66 66 66 66 66 66 66 65 65 65 65 65 65 65 65 65 65 65 65 65 65 65 65 64 64 64 64 63 63 63 62 62 62 62 62 62 62 62
66 66 66 66 66 67 66 66 67 66 66 66 66 65 65 65 65 65 66 66 66 66 66 66 65 65 65 64 64 64 63 63 63 62 62 62 61 61 61 61 61 61
66 66 66 66 66 66 67 67 67 67 67 66 66 66 66 66 66 66 66 66 66 66 66 66 66 65 65 64 64 63 63 63 63 62 62 61 61 60 59 60 60 60
66 66 66 66 66 66 66 67 67 67 67 67 66 66 66 66 66 66 66 66 66 66 66 66 66 66 62 59 59 63 63 63 63 62 62 61 61 60 58 59 59 59
66 66 66 66 66 66 66 66 67 67 67 67 67 66 66 66 66 66 66 66 66 66 66 66 66 65 56 52 52 56 62 63 62 62 61 61 60 60 59 57 57 58
65 66 66 66 66 66 66 66 67 67 67 67 67 67 66 66 66 66 66 66 66 66 66 66 66 60 51 51 51 51 56 63 63 62 61 61 60 59 59 58 57 57
61 61 62 64 65 66 66 66 66 66 67 67 67 67 67 66 66 66 66 66 66 66 66 66 65 55 50 50 50 50 51 59 63 62 61 60 60 59 59 58 57 57
61 61 61 61 62 63 63 65 66 66 67 67 67 67 67 66 66 66 66 66 66 66 66 66 65 56 49 49 49 49 49 54 63 62 61 61 60 59 58 58 57 57
59 59 60 60 61 62 62 63 63 66 66 66 66 66 66 66 66 66 66 66 66 66 66 66 66 53 48 48 48 48 48 51 63 62 61 60 60 59 58 58 57 57
59 59 59 60 61 61 61 62 62 65 66 66 66 66 66 67 67 66 66 66 66 66 65 65 65 49 47 47 48 48 47 56 63 62 61 60 59 58 57 57 56 57
60 61 61 61 62 62 62 62 64 65 66 66 65 66 66 66 66 66 66 66 66 65 65 65 65 51 46 47 47 47 48 58 62 61 59 59 58 57 57 56 55 56
61 62 62 62 63 63 63 64 64 65 66 65 66 65 65 66 66 66 66 66 65 65 65 65 64 55 46 47 47 46 51 59 61 59 59 58 58 56 56 55 55 55
61 62 62 62 62 63 63 63 64 65 66 66 66 66 66 66 65 66 66 66 65 65 61 64 64 57 45 47 46 46 51 60 60 59 59 58 57 56 54 54 54 55
60 60 61 61 61 61 62 63 64 65 65 65 65 66 66 65 64 65 65 65 65 65 64 64 64 61 51 46 47 46 48 60 60 59 59 58 57 56 54 53 53 53